GSAT0208 (PRN E08)

Last updated on Oct. 31, 2020, 5:53 a.m. UTC

1 41175U 15079B   20304.28382887  .00000066  00000-0  00000-0 0  9997
2 41175  55.0108 157.7688 0002477 350.4242   9.6803  1.70473167 30310
UTC
Height (km)
Latitude
Longitude
Inclination
Orbital Period
UTC large
Height (km)
Speed (km/s)
/
Latitude / Longitude
Inclination (degrees)
Orbital Period (minutes)
Azimuth
Elevation
Range (km)
Doppler Factor
iOS Compass Heading
iOS Angle

Next 30 passes for location: Hong Kong

Rise time Rise Azimuth (degrees) Set time Set Azimuth (degrees) Duration Max altitude (degrees)

No matching passes for this satellites